sat.trackr.live / text

‹ back to catalog

TIANMU-1 06

NORAD 55976 · 2023-039D

PAYLOAD ACTIVE UNKNOWN

§ Identity

Operator
Country
PRC
Launch date
2023-03-22
Launch site
JSC
Launch vehicle
Mass (kg)
RCS (m²)

Purposes: earth_obs

External: N2YO · Heavens-Above · Gunter

§ Orbital elements

Epoch: 2026-05-25T05:11:11.325120Z

Period
93.08 min
Inclination
97.5220°
Eccentricity
0.0003335
Mean motion
15.47025564 rev/d
Perigee alt
423.2 km
Apogee alt
427.7 km
Semi-major
6,803.6 km
B*
3.0141e-4
RAAN
318.5364°
Arg perigee
171.9822°
Mean anomaly
188.1481°
Rev number
17,729

§ Raw data

TIANMU-1 061 55976U 23039D   26145.21610330  .00015147  00000+0  30141-3 0  99922 55976  97.5220 318.5364 0003335 171.9822 188.1481 15.47025564177299

JSON: /api/v1/satellites/55976 · /tle

For live sub-satellite position, see the globe view (requires WebGL).

§ Visibility from observer

Set your observer location to see the next 7 days of passes ≥ 10°. The values pass through the URL so the page stays shareable.

No JS? Fill the form by hand. The geolocation button needs JavaScript.